GFSNW_prec_radar_315.txt.gz
Reflectivity
9 -20 -17 -20 2 16 -20 -20 -20 -20 -20 -20 -20 -20 -20 -20 -20 -20 -20 -20 -13 5 14 13 9 -3 13 -20 -20 14 -8 2 -3 -1 -19 -20 -20 -20 -19 12 7 16 9 -10
-18 7 2 -14 6 18 11 1 -20 -20 -20 -20 -20 -20 -20 -20 -20 -20 -20 -20 -1 1 2 11 9 10 11 -13 -10 12 8 6 -17 -20 -20 -20 -18 -20 -10 -7 10 -19 7 7
11 -4 11 13 7 16 6 15 4 -20 -20 -20 -20 -20 -20 -20 -20 -20 -20 -20 -20 10 4 -6 1 -8 8 4 3 6 3 5 9 4 -20 -12 -9 -20 -20 4 15 -11 -11 -15
10 13 -20 8 -15 21 12 32 3 -17 5 5 -16 -20 -20 -20 -20 -20 -19 -9 5 13 -20 -20 -20 -20 -20 -20 -20 -20 7 4 -0 1 -19 -4 -19 -20 -20 1 -20 6 -20 -20
10 11 7 -19 -20 19 16 31 13 -0 -18 -20 -20 2 -20 -20 -20 -20 -20 4 2 14 2 1 -15 10 -15 -3 -0 1 13 7 5 5 2 1 -5 -20 -20 -20 -20 -20 -20 -20
11 10 -3 -11 18 16 -12 22 28 21 31 -13 -8 -20 -4 -13 -20 -20 -20 8 2 7 14 11 -20 -14 -7 8 6 10 12 14 15 7 -4 -17 -13 -20 -20 -20 -20 -20 12 19
11 11 0 16 11 9 25 3 20 17 9 23 7 -11 -20 -19 -20 6 -20 1 14 13 -7 -7 -20 -20 -20 -15 -0 5 13 3 20 7 4 3 -17 -20 -20 -20 -20 -20 -20 -14
10 10 11 21 -19 5 23 21 29 21 17 9 15 3 13 14 13 -2 -20 -20 -20 -17 -20 1 7 -7 -19 -9 -4 -14 11 8 15 10 10 -6 -20 -20 -20 -20 -20 -20 -16 9
-17 -1 19 -3 -9 5 23 12 22 36 24 12 34 7 -4 12 14 -17 -20 -20 -20 -20 -1 10 14 7 -19 1 -0 -7 8 2 15 13 9 7 -16 -20 -20 -20 -19 -20 -20 -20
15 4 14 -18 -18 -10 22 19 18 28 17 7 -15 10 19 19 1 1 -1 -13 -20 -15 5 14 17 9 -20 6 7 7 9 6 2 5 14 10 -20 -20 -20 -15 -18 -20 -20 -20
13 13 4 2 18 7 24 20 11 25 20 21 8 -1 14 5 -5 12 6 0 -7 3 15 13 14 9 3 -17 -8 7 8 13 12 5 13 8 -20 -20 -17 -19 -20 -20 -20 -20
-17 -20 -20 5 17 17 24 25 0 11 27 35 32 14 5 -18 1 16 0 4 -20 12 15 2 5 9 -20 -19 7 -20 -9 -18 18 -7 15 -20 -20 -20 -20 -20 -20 2 -11 -20
17 17 19 22 20 19 25 29 8 0 6 0 -4 5 -3 -20 -20 -20 13 16 -16 -3 6 16 16 15 -12 4 -10 -20 -14 -12 -20 -13 -16 0 -20 -20 -20 -20 -20 -20 -20 -20
19 22 22 23 21 13 29 17 7 -5 17 14 18 -14 -8 -20 -20 -20 7 14 17 -14 -2 17 14 16 -15 -0 9 -20 8 2 11 8 -20 -20 -20 -20 -20 -20 -20 -20 -20 -20
17 19 21 21 23 22 18 -8 0 6 13 16 2 -20 -20 -20 -20 -20 -16 -8 10 9 15 15 14 0 -14 -17 -3 -14 -14 12 13 17 -11 -20 -20 -20 -20 -20 -20 -20 -20 -20
22 15 22 32 5 26 -20 9 -20 -13 -3 8 12 -20 -20 -20 -20 -20 -20 -15 3 14 16 15 12 -20 -7 13 10 -20 -20 -20 -20 -20 -20 -20 -20 -20 -20 -20 -20 -20 -20 -20
21 20 20 13 21 -14 6 5 -3 -20 -17 2 9 7 -20 -20 -20 -20 -20 -20 -5 -7 3 3 -9 1 -10 6 -20 -20 -20 -20 -20 -20 -20 -20 -20 -20 -20 -20 -20 -18 -20 -20
11 -1 29 19 14 16 3 -7 -8 -3 26 0 9 -8 -20 -20 -20 -14 -20 -4 -11 -19 -3 -7 -9 -20 -20 -20 -20 -20 -20 -20 -20 -20 -20 -20 -20 -20 -20 -20 -20 -20 -20 -20
2 -5 -10 2 -19 3 -3 8 5 3 2 14 -15 -6 9 -20 -20 -20 -20 -20 3 -20 4 -18 -20 -2 -20 -20 -20 -20 -20 -20 -20 -20 -20 -20 -20 -20 -20 -20 -20 -20 -20 -20
-20 -20 -20 -14 5 -6 -20 -20 -20 -20 -20 -20 -0 -20 5 -20 -20 -15 -18 -20 -20 1 -6 -20 -20 -20 -20 -20 -20 -20 -20 -20 -20 -20 -20 -20 -20 -20 -20 -20 -20 -20 -20 -20
-20 -20 -20 -12 -20 -20 -20 -20 -20 -20 -20 -20 -14 -20 -20 -20 -4 -1 -20 -17 -20 -20 -20 -20 -10 -20 -20 -20 -20 -20 -20 -20 -20 -20 -20 -20 -20 -20 -20 -20 -20 -20 -20 -20
-20 -20 -20 -20 -20 -20 -20 -20 -20 -20 -20 -20 -17 -18 -20 -20 -20 -2 -20 -14 -20 -20 -20 -20 -20 -20 -20 -20 -20 -20 -20 -20 -20 -20 -20 -20 -20 -20 -20 -20 -20 -20 -20 -20
-20 -20 -20 -20 -20 -20 -20 -20 -20 -20 -20 -20 -20 -16 -20 -20 -20 -20 -20 -20 -20 -20 -20 -20 -20 -20 -20 -20 -20 -20 -20 -20 -20 -20 -20 -20 -20 -20 -20 -20 -20 -20 -20 -20
-20 -20 -20 -20 -20 -20 -20 -20 -20 -20 -20 -20 -20 -20 -20 -20 -20 -20 -20 -20 -20 -20 -20 -20 -20 -20 -20 -20 -20 -20 -20 -20 -20 -20 -20 -20 -20 -20 -20 -20 -20 -20 -20 -20
-20 -20 -20 -20 -20 -20 -20 -20 -20 -20 -20 -20 -14 -20 -20 -20 -20 -20 -20 -20 -20 -20 -20 -20 -20 -20 -20 -20 -20 -20 -20 -20 -20 -20 -20 -20 -20 -20 -20 -20 -20 -20 -20 -20
-20 -20 -20 -20 -20 -20 -20 -20 -20 -20 -20 -20 -20 -20 -20 -20 -20 -20 -20 -20 -20 -20 -10 -15 -20 -20 -20 -20 -20 -20 -20 -20 -20 -20 -20 -20 -20 -20 -20 -20 -20 -20 -20 -20
-20 -20 -20 -20 -20 -20 -20 -20 -20 -20 -20 -20 -20 -20 -20 -20 -20 -20 -20 -20 -20 -20 -20 -20 -20 -20 -20 -20 -20 -20 -20 -20 -20 -20 -20 -20 -20 -20 -20 -20 -20 -20 -20 -20

GFSNW_prec_radar_321.txt.gz
Reflectivity
-0 9 -4 -20 -20 3 7 -20 -7 -20 -20 -20 -20 -20 -20 -20 -20 -20 -20 -20 -20 -19 -20 -20 -20 9 -16 -18 -19 -2 3 1 -19 -4 2 6 -6 -20 -3 8 -15 -20 -20 -20
8 18 -3 -20 -16 16 7 -6 -20 -20 -20 -20 -20 -20 -20 -20 -20 -20 -20 -20 -20 -20 -20 -20 -2 -19 -20 -20 -20 -20 -10 9 -18 -20 1 0 -17 -20 -20 -7 4 1 -20 -5
14 17 -17 -20 -14 10 -6 -3 -20 -20 -20 -7 -15 -20 -5 7 1 2 -20 -20 -20 -20 -20 -16 -20 -20 -20 -20 -20 -16 -11 -20 -20 -16 -9 -1 -20 -20 -20 -20 -20 -20 -20 -20
4 1 10 -20 -10 12 11 7 3 -12 -11 -20 -16 5 -14 -12 10 9 3 -20 -20 -20 -20 -20 -20 -20 -20 -20 -20 -20 -2 8 -20 -20 -20 -20 -20 -20 -20 -19 -20 -20 -20 -20
3 10 8 8 -20 23 13 13 11 -14 -19 -20 -4 -20 -20 -20 -20 0 8 17 -20 -20 -20 -20 -20 -20 -20 -20 -20 -20 -20 -20 4 -20 -20 -20 -20 -20 -20 -20 -20 -20 -20 -20
13 9 4 19 -15 25 23 26 19 14 -9 -20 -12 -20 14 25 17 0 7 25 13 -14 -20 -20 -20 -20 -20 10 -10 -20 -5 5 -20 -20 -15 -20 -20 -20 -20 -20 -20 -20 -20 -20
13 7 -17 15 2 27 24 27 33 26 16 14 -12 -20 -20 -6 -15 -3 14 23 16 1 -20 -20 -20 -20 -20 -20 -20 -6 -2 -4 -9 -20 -5 -19 -20 -20 -20 -20 -20 -20 -20 -20
-15 -6 6 16 19 -20 24 26 24 26 23 14 6 -16 -20 -20 -20 -20 19 20 10 -18 -20 -20 -20 -20 -20 3 -20 -19 5 -6 13 -20 2 -20 -9 -20 -20 -20 -20 -20 -20 -20
17 19 17 -16 17 19 24 13 19 5 19 20 25 8 -20 -20 -20 -20 -20 -20 -20 -20 -20 -20 -20 7 -19 -20 -20 -20 -17 22 0 -18 -20 -20 -20 -20 -20 -20 -20 -20 -20 -19
14 16 19 17 16 17 19 -15 15 24 22 26 -3 -20 2 8 16 -13 -20 -20 -20 -20 -20 -20 -5 -19 -20 -20 -7 -20 -13 -12 -20 -1 5 -20 -12 -20 -20 -20 -20 -20 -20 -20
13 16 16 20 18 15 18 22 12 18 27 9 -14 10 13 4 -1 12 -14 -20 -20 -20 -20 -20 6 -19 -5 -20 3 4 8 -9 -20 -20 -20 -15 -20 -20 -20 -20 -20 -20 -20 -20
13 7 7 7 10 -3 12 12 19 2 -13 -20 -20 -19 3 10 29 16 -20 -16 -19 -20 -20 -20 -20 -20 -20 -20 -20 -20 -20 -20 -18 12 11 -20 -20 -20 -20 -20 -20 -20 -20 -20
7 8 4 -3 -0 7 4 -12 -10 -20 -20 -20 -20 -17 -20 -20 -20 -20 -16 -20 -11 22 -20 -20 -20 -20 -20 -20 -20 -20 -20 -20 -20 -20 -20 -20 -20 -20 -20 -20 -20 -20 -20 -20
-2 -16 -8 -2 -20 2 -18 -19 8 -20 -20 -20 -20 -20 -20 -20 -20 -20 -11 -13 14 2 6 -20 -20 -20 -20 -20 -20 -20 -17 -20 -20 -20 -17 -16 -12 -20 -20 -20 -20 -20 -20 -20
-15 -20 -20 -20 -0 -17 -20 -20 -10 -13 -20 -20 -20 -20 -20 -20 -20 -20 -20 -20 -20 -20 -20 -20 -20 -5 -20 -20 -20 -20 -11 10 1 -20 -18 -13 -20 -20 -20 -20 -20 -20 -20 -20
-20 -20 -20 -20 -1 -20 -20 -20 -20 -4 -3 -20 -20 -20 -20 -20 -20 -20 -20 -20 -20 -20 -6 -0 -18 -20 -20 -20 -20 2 -17 -20 -20 -20 -20 -20 -20 -20 -20 -20 -20 -20 -20 -20
-19 -16 2 -20 -20 -20 -16 5 15 3 -20 -20 -20 -20 -20 -20 -20 -20 -20 -20 -20 -20 -20 -20 -20 -20 -20 -20 -20 -20 -20 -20 -20 -20 -20 -20 -20 -20 -20 -20 -20 -9 -20 -20
9 11 -3 -20 -20 -20 -20 -20 -5 -19 -20 -20 -20 -20 -20 -20 -20 -20 -20 -20 -20 -20 -20 -20 -20 -20 -20 -20 -20 -20 -20 -20 -20 -20 -20 -20 -20 -20 -20 -20 -20 -20 -20 -20
2 4 -20 -20 -20 -20 -20 -1 -20 -20 -20 -20 -20 -20 -20 -20 -20 -20 -20 -20 -20 -20 -20 -20 -20 -20 -20 -20 -20 -20 -20 -20 -20 -20 -20 -20 -20 -20 -20 -20 -20 -20 -20 -20
-20 -20 -20 -20 -20 -3 -20 -20 -20 -20 -20 -20 -20 -20 -20 -20 -20 -20 -20 -20 -20 -20 -20 -20 -20 -20 -20 -20 -20 -20 -20 -20 -20 -20 -20 -20 -20 -20 -20 -20 -20 -20 -20 -20
-20 -20 -20 -20 -20 -20 -20 -20 -20 -20 -20 -20 -20 -20 -20 -20 -20 -20 -20 -20 -20 -20 -20 -20 -20 -20 -20 -20 -20 -20 -20 -20 -20 -20 -20 -20 -20 -20 -20 -20 -20 -20 -20 -20
-20 -20 -20 -20 -20 -20 -20 -20 -20 -20 -20 -20 -20 -20 -20 -20 -20 -20 -20 -20 -20 -20 -20 -20 -20 -20 -20 -20 -20 -20 -20 -20 -20 -20 -20 -20 -20 -20 -20 -20 -20 -20 -20 -20
-20 -20 -20 -20 -20 -20 -20 -20 -20 -20 -20 -20 -20 -20 -20 -20 -20 -20 -20 -20 -20 -20 -20 -20 -20 -20 -20 -20 -20 -20 -20 -20 -20 -20 -20 -20 -20 -20 -20 -20 -20 -20 -20 -20
-20 -20 -20 -20 -20 -20 -20 -20 -20 -20 -20 -20 -20 -20 -20 -20 -20 -20 -20 -20 -20 -20 -20 -20 -20 -20 -20 -20 -20 -20 -20 -20 -20 -20 -20 -20 -20 -20 -20 -20 -20 -20 -20 -20
-20 -20 -20 -20 -20 -20 -20 -20 -20 -20 -20 -20 -20 -20 -20 -20 -20 -20 -20 -20 -20 -20 -20 -20 -20 -20 -20 -20 -20 -20 -20 -20 -20 -20 -20 -20 -20 -20 -20 -20 -20 -20 -20 -20
-20 -20 -20 -20 -20 -20 -20 -20 -20 -20 -20 -20 -20 -20 -20 -20 -20 -20 -20 -20 -20 -20 -20 -20 -20 -20 -20 -20 -20 -20 -20 -20 -20 -20 -20 -20 -20 -20 -20 -20 -20 -20 -20 -20
-20 -20 -20 -20 -20 -20 -20 -20 -20 -20 -20 -20 -20 -20 -20 -20 -20 -20 -20 -20 -20 -20 -20 -20 -20 -20 -20 -20 -20 -20 -20 -20 -20 -20 -20 -20 -20 -20 -20 -20 -20 -20 -20 -20

GFSNW_prec_radar_324.txt.gz
Reflectivity
15 11 7 16 8 -20 12 -20 -20 -20 -20 -20 -20 -20 4 -19 -20 -16 -20 -20 -20 -20 -20 -20 -20 -13 -19 -19 -20 -20 -19 5 13 20 21 8 -12 1 15 14 -19 -20 -20 -20
4 -20 -16 11 11 -3 6 0 -20 -20 -20 -15 5 -12 -20 10 0 -20 -20 -12 -20 -20 -20 -20 -20 -20 -20 -20 -20 -20 -11 13 -16 -8 4 -17 -20 -20 -16 -20 6 -14 -20 2
-10 9 5 6 5 20 -15 -3 -20 -20 -20 -20 -12 -20 -20 -20 -20 8 15 -4 -20 -20 -20 -20 -20 -20 -20 -20 -20 -20 -7 -20 -11 -13 5 -17 -20 11 11 -19 -20 -15 -20 7
10 4 9 6 17 22 -16 27 8 -6 -20 -20 -20 -20 -20 -20 15 5 -11 -20 -20 10 -20 -20 -20 -20 -20 -20 -20 -20 -20 -20 -20 -20 -20 -16 -20 -18 -20 -20 -20 -20 -20 -8
10 -9 10 20 -12 23 14 6 -9 13 -20 -19 -20 -20 -20 -20 -20 6 -20 -7 3 6 21 2 -20 -20 -20 -20 -20 -20 -20 -20 -4 -20 -20 -11 -13 -20 -20 -20 -20 -20 -20 -20
-20 9 -17 -9 14 21 13 22 32 34 -3 -6 19 24 9 -16 -14 -20 18 4 4 13 19 11 -17 -20 -20 -20 -20 -20 3 -20 -20 -20 -14 -14 -20 -20 -20 -20 -20 -20 -20 -20
7 9 11 6 15 19 16 17 12 -1 -4 -15 3 24 8 -20 -20 3 -20 9 17 16 13 -20 -20 -20 -20 -20 -20 -20 -10 -12 10 -20 -5 -20 -20 -20 -20 -20 -20 -20 -20 -20
12 12 10 13 -2 8 -16 9 -2 -2 1 -14 17 -10 -20 -20 -20 -9 -20 -20 -14 -17 -20 -20 -20 -20 -20 -20 -20 -20 -20 3 15 2 -20 -20 -15 -15 -20 -20 -20 -20 -20 -20
12 10 6 5 3 -9 -18 -20 31 25 -9 16 -7 -14 -20 -19 -6 -20 -20 -20 -20 -20 -20 -20 -20 -20 -15 -19 -20 -20 -8 5 12 -20 -20 -14 -17 -20 -20 -20 -20 -20 -19 11
8 8 -10 -6 -20 11 -20 5 -3 26 25 4 -20 -13 -7 9 0 2 -20 -20 -20 -20 -20 -20 -20 -18 7 -1 4 3 -19 1 6 -18 -1 -16 7 -20 -20 -20 -20 -20 -9 -19
5 4 8 -13 5 -20 -20 -20 -20 9 -17 -20 -19 -20 6 -15 -5 11 1 -20 -20 -20 -20 -20 -20 -20 -20 -20 -7 -11 0 3 -20 -20 -20 -20 -20 -16 -20 -20 -20 -20 -20 -20
-15 13 3 -18 -12 -7 7 -8 -20 -20 -4 -20 -20 -15 -20 -7 -7 1 -20 -20 -20 -20 -20 -20 -20 -20 -20 -20 -20 -20 -20 -20 -18 12 3 -20 -20 -20 -20 -20 -20 -20 -20 -20
-18 -2 -4 -3 -2 1 -18 -20 -20 -20 -20 -20 -20 -20 -20 -20 -20 -20 -17 -17 -17 9 -18 -20 -20 -20 -20 -20 -20 -20 -20 -20 -20 -20 2 -20 -20 -20 -20 -20 -20 -20 -20 -20
-20 -15 -12 -8 4 -20 -19 -20 -20 -20 -20 -20 -20 -20 -20 -20 -20 -20 -20 -7 -17 -9 -20 -20 -20 -20 -20 -20 -20 -20 -20 -19 -20 -20 -20 -20 -20 -20 -20 -20 -20 -20 -20 -20
-20 -20 -20 2 -20 -20 -20 -20 -20 -20 -20 -20 -20 -20 -20 -20 -20 -20 -20 -20 -20 -20 -20 -20 -20 -3 -1 -20 -20 5 -6 2 -20 -20 -20 -20 -20 -20 -20 -20 -20 -20 -20 -20
-20 -20 -2 -1 -20 -20 -20 -20 -17 -13 1 -20 -20 -20 -20 -20 -20 -20 -20 -20 -20 -20 -20 -20 -5 -20 -20 -20 -20 -9 -20 -20 -20 -20 -20 -20 -20 -20 -20 -20 -20 -20 -20 -20
3 -8 -20 -20 -20 -20 -20 -5 3 -9 -20 -20 -20 -20 -20 -20 -20 -20 -20 -20 -20 -20 -20 -20 -20 -20 -20 -20 -20 -20 -20 -20 -20 -20 -20 -20 -20 -20 -20 -20 -20 -11 -20 -20
2 -8 -20 -20 -20 -20 -20 -19 -13 -20 -20 -20 -20 -20 -20 -20 -20 -20 -20 -20 -20 -20 -20 -20 -20 -20 -20 -20 -20 -20 -20 -20 -20 -20 -20 -20 -20 -20 -20 -20 -20 -20 -20 -20
10 11 -19 -20 -20 -20 -20 -20 -16 -20 -20 -20 -20 -20 -20 -20 -20 -20 -20 -20 -20 -20 -20 -20 -20 -20 -20 -20 -20 -20 -20 -20 -20 -20 -20 -20 -20 -20 -20 -20 -20 -20 -20 -20
-20 -20 -20 -20 -20 0 -20 -20 -20 -20 -20 -20 -20 -20 -20 -20 -20 -20 -20 -20 -20 -20 -20 -20 -20 -20 -20 -20 -20 -20 -20 -20 -20 -20 -20 -20 -20 -20 -20 -20 -20 -20 -20 -20
-20 -20 -20 -20 -20 -20 -20 -20 -20 -20 -20 -20 -20 -20 -20 -20 -20 -20 -20 -20 -20 -20 -20 -20 -20 -20 -20 -20 -20 -20 -20 -20 -20 -20 -20 -20 -20 -20 -20 -20 -20 -20 -20 -20
-20 -17 -20 -20 -20 -20 -20 -20 -20 -20 -20 -20 -20 -20 -20 -20 -20 -20 -20 -20 -20 -20 -20 -20 -20 -20 -20 -20 -20 -20 -20 -20 -20 -20 -20 -20 -20 -20 -20 -20 -20 -20 -20 -20
-20 -20 -20 -20 -20 -20 -20 -20 -20 -20 -20 -20 -20 -20 -20 -20 -20 -20 -20 -20 -20 -20 -20 -20 -20 -20 -20 -20 -20 -20 -20 -20 -20 -20 -20 -20 -20 -20 -20 -20 -20 -20 -20 -20
-20 -20 -20 -20 -20 -20 -20 -20 -20 -20 -20 -20 -20 -20 -20 -20 -20 -20 -20 -20 -20 -20 -20 -20 -20 -20 -20 -20 -20 -20 -20 -20 -20 -20 -20 -20 -20 -20 -20 -20 -20 -20 -20 -20
-20 -20 -20 -20 -20 -20 -20 -20 -20 -20 -20 -20 -20 -20 -20 -20 -20 -20 -20 -20 -20 -20 -20 -20 -20 -20 -20 -20 -20 -20 -20 -20 -20 -20 -20 -20 -20 -20 -20 -20 -20 -20 -20 -20
-20 -20 -20 -20 -20 -20 -20 -20 -20 -20 -20 -20 -20 -20 -20 -20 -20 -20 -20 -20 -20 -20 -20 -20 -20 -20 -20 -20 -20 -20 -20 -20 -20 -20 -20 -20 -20 -20 -20 -20 -20 -20 -20 -20
-20 -20 -20 -20 -20 -20 -20 -20 -20 -20 -20 -20 -20 -20 -20 -20 -20 -20 -20 -20 -20 -20 -20 -20 -20 -20 -20 -20 -20 -20 -20 -20 -20 -20 -20 -20 -20 -20 -20 -20 -20 -20 -20 -20

GFSNW_prec_radar_330.txt.gz
Reflectivity
-20 1 2 6 6 -3 -20 -20 -20 -20 -20 -20 -20 -20 -20 -20 -20 -20 -20 -20 8 3 -5 -20 -20 -1 -20 -20 -20 -20 -20 -20 -20 -20 10 17 19 13 -19 -4 -20 -19 4 -20
-20 1 1 10 9 2 -20 -20 -20 -20 -20 -19 -20 -20 -20 -20 -20 -20 -18 -20 1 -17 6 -1 -20 -20 -20 -20 -20 -20 -20 -20 -20 -19 5 -11 -2 -3 -3 -16 -20 -3 6 -8
-16 8 1 -3 4 -14 -20 -20 -20 -20 -20 -20 -20 -20 -20 -20 -20 -20 -20 -11 14 -20 11 10 -0 -20 -20 -20 -20 -20 -20 -20 -20 -20 -9 -11 -20 -20 -16 12 4 -16 -20 -20
8 9 -11 11 5 -20 -20 -20 -20 -13 -20 -20 -20 -20 -20 -20 -9 -20 -20 -18 -3 -2 -13 -20 -20 -15 -5 -20 -20 -20 -20 -20 -20 -20 -20 -20 -18 -7 -20 -18 -6 -20 -20 -20
8 7 3 15 -5 -20 -20 -20 -4 -20 -20 -20 -20 -20 -1 10 -3 -0 -20 -12 -10 -2 19 18 15 9 12 -12 -20 -20 -20 -20 -20 -20 -20 -20 -20 -20 -20 -19 -20 -20 -20 -20
6 -1 -10 5 9 -20 -20 -18 -1 4 -20 -20 -20 -18 -10 -14 -19 -20 10 -5 -20 -20 -19 -13 -5 -19 -20 -20 -20 -20 -20 -20 -20 -20 -20 -20 -20 -20 -20 -20 -20 -20 -20 -20
7 -2 6 3 -8 -8 -20 -19 -2 -11 -20 -20 -19 -20 -20 -20 -20 -2 -20 -20 -20 -20 -20 -20 -20 -20 -20 -20 -20 -20 -20 -15 -6 -20 -20 -20 -16 -20 -20 -20 -20 -20 -20 -20
-15 2 2 3 -2 -4 -20 -20 5 -6 -20 -20 -20 -20 -20 -20 -20 -20 -20 -20 -20 -20 -20 -20 -20 -20 -20 -20 -20 -18 -17 -6 14 -20 -20 -20 -4 -4 -20 -20 -20 -20 -20 -20
-2 11 14 12 -4 -11 -20 -20 7 -6 6 -18 -20 -20 -20 -20 -20 -20 -20 -20 -20 -20 -20 -20 -20 -20 -20 -20 -20 -20 -20 6 -19 -20 -20 -9 10 15 -20 -20 -20 -20 -20 -20
11 -12 -20 7 -16 7 -20 -6 -20 -0 -9 -18 -20 -15 -11 -5 -16 -20 -20 -20 -20 -20 -20 -20 -20 -20 -20 -20 -18 -2 -20 -20 -20 3 -20 -20 -19 -20 -20 -20 -20 -2 -20 -3
13 -2 1 -9 -7 6 -20 -20 -20 -14 -20 -20 -17 -15 -20 -20 -20 -20 -20 -20 -20 -20 -20 -20 -20 -20 -20 -20 -20 -15 -16 -18 -20 -20 -20 -20 -19 -20 -13 -12 -7 -19 -20 -20
14 -0 -20 -2 -5 -20 -20 -20 -20 -18 -1 -20 -19 -20 -20 -20 -20 -2 -20 -20 -8 -20 5 -20 -20 -20 -20 -20 -20 -20 -18 -18 -2 -20 -15 -5 -20 -18 -20 -20 -20 -20 -20 -20
14 -1 2 -19 -20 -20 -20 -20 -20 -20 -20 -20 -20 -20 -20 -20 -20 -20 -19 -20 -19 -20 1 -17 -20 -20 -20 -20 -20 -20 -20 -20 -20 -20 -4 -8 -20 -20 -20 -20 -20 -20 -20 -20
3 4 11 -20 -20 -20 -20 -20 -20 -20 -20 -20 -20 -20 -20 -20 -20 -20 -20 -20 -20 -19 -20 -19 -20 -20 -15 -16 -20 -20 -20 -20 -20 -20 -20 -20 -20 -20 -20 -20 -20 -20 -20 -20
12 -8 1 12 -18 -20 7 -18 -20 -18 -20 -20 -20 -20 -20 -20 -20 -20 -20 -20 -14 -20 -20 -20 -20 -20 -20 -17 -20 -20 -20 -20 -20 -20 -20 -20 -20 -20 -20 -20 -20 -20 -20 -20
14 7 -20 -20 -19 -6 -20 -20 -20 -20 -20 -20 -20 -20 -20 -20 -20 -20 -20 -20 -20 -20 -20 -20 -20 -20 -20 -20 -20 -20 -20 -20 -20 -20 -20 -20 -20 -20 -20 -20 -20 -20 -20 -20
13 11 11 8 -15 -20 -20 -20 -16 -2 -20 -20 -20 -20 -20 -20 -20 -20 -20 -20 -20 -20 -20 -20 -20 -20 -20 -20 -20 -20 -20 -20 -20 -20 -20 -20 -20 -20 -20 -20 -20 -20 -20 -20
-18 -3 12 9 -17 -20 -20 -20 -2 -20 -20 -20 -20 -20 -20 -20 -20 -20 -20 -20 -20 -20 -20 -20 -20 -20 -20 -20 -20 -20 -20 -20 -20 -20 -20 -20 -20 -20 -20 -20 -20 -20 -20 -20
-20 -17 -20 -20 -20 -20 -20 10 -17 -20 -20 -20 -20 -20 -20 -20 -20 -20 -20 -20 -20 -20 -20 -20 -20 -20 -20 -20 -20 -20 -20 -20 -20 -20 -20 -20 -20 -20 -20 -20 -20 -20 -20 -20
-20 -20 -20 -20 -20 -5 -20 -20 -20 -20 -20 -20 -20 -20 -20 -20 -20 -20 -20 -20 -20 -20 -20 -20 -20 -20 -20 -20 -20 -20 -20 -20 -20 -20 -20 -20 -20 -20 -20 -20 -20 -20 -20 -20
-20 -20 -20 -20 -20 -20 -20 -20 -20 -20 -20 -20 -20 -20 -20 -20 -20 -20 -20 -20 -20 -20 -20 -20 -20 -20 -20 -20 -20 -20 -20 -20 -20 -20 -20 -20 -20 -20 -20 -20 -20 -20 -20 -20
-20 -19 -20 -20 -20 -20 -20 -20 -20 -20 -20 -20 -20 -20 -20 -20 -20 -20 -20 -20 -20 -20 -20 -20 -20 -20 -20 -20 -20 -20 -20 -20 -20 -20 -20 -20 -20 -20 -20 -20 -20 -20 -20 -20
-20 -19 -20 -20 -20 -20 -20 -20 -20 -20 -20 -20 -20 -20 -20 -20 -20 -20 -20 -20 -20 -20 -20 -20 -20 -20 -20 -20 -20 -20 -20 -20 -20 -20 -20 -20 -20 -20 -20 -20 -20 -20 -20 -20
-20 -20 -20 -20 -20 -20 -20 -20 -20 -20 -20 -20 -20 -20 -20 -20 -20 -20 -20 -20 -20 -20 -20 -20 -20 -20 -20 -20 -20 -20 -20 -20 -20 -20 -20 -20 -20 -20 -20 -20 -20 -20 -20 -20
-20 -20 -20 -20 -20 -20 -20 -20 -20 -20 -20 -20 -20 -20 -20 -20 -20 -20 -20 -20 -20 -20 -20 -20 -20 -20 -20 -20 -20 -20 -20 -20 -20 -20 -20 -20 -20 -20 -20 -20 -20 -20 -20 -20
-20 -20 -20 -20 -20 -20 -20 -20 -20 -20 -20 -20 -20 -20 -20 -20 -20 -20 -20 -20 -20 -20 -20 -20 -20 -20 -20 -20 -20 -20 -20 -20 -20 -20 -20 -20 -20 -20 -20 -20 -20 -20 -20 -20
-20 -20 -20 -20 -20 -20 -20 -20 -20 -20 -20 -20 -20 -20 -20 -20 -20 -20 -20 -20 -20 -20 -20 -20 -20 -20 -20 -20 -20 -20 -20 -20 -20 -20 -20 -20 -20 -20 -20 -20 -20 -20 -20 -20

GFSNW_prec_radar_333.txt.gz
Reflectivity
-20 5 2 0 6 -14 -20 -20 -20 -20 -20 -20 -20 -20 -20 -20 -20 -20 -20 -20 9 6 -17 -20 -20 5 -20 -20 -20 -20 -20 -20 -20 -20 3 13 3 -9 14 -1 -19 -7 0 -20
-5 5 -14 11 1 -20 -20 -20 -20 -20 -20 -15 -20 -20 -20 -20 -20 -20 -20 -20 -6 -1 -20 1 20 6 -20 -20 -20 -20 -20 -20 -20 -19 3 9 -10 1 -6 -15 -20 -20 -20 -20
-6 5 -20 14 -6 -20 -20 -20 -20 -20 -20 -20 -16 -20 -20 -4 -20 -20 -20 -14 -20 -20 -20 -19 -2 5 -7 -20 -20 -20 -20 -20 -20 -20 -20 -20 -5 -20 -6 -15 -20 -20 -20 -20
8 1 -20 -3 -20 -20 -20 -20 -20 -13 -20 -20 -20 -20 -20 -20 -3 -20 -20 -20 -20 11 1 -19 3 -0 -14 -20 -20 -20 -20 -20 -20 -20 -20 -20 -20 0 7 8 -20 -20 -20 -20
10 6 7 -15 -20 -20 -20 -18 -0 -20 -20 -20 -20 -20 -20 -20 -20 -20 -18 -20 -20 -20 -20 6 -10 -16 -20 -20 -20 -20 -20 -20 -20 -20 -20 -20 -20 -20 -15 -6 -20 -20 -20 -10
11 10 6 5 7 -20 -20 -20 -11 2 -20 -20 -18 -3 -20 -17 -20 -20 -20 -20 -20 -20 -20 -20 -20 -16 -20 -20 -20 -20 -20 -20 -20 -20 -20 -20 -20 -20 -20 -20 -20 -20 -20 -20
15 17 6 4 9 -17 -20 -20 -3 -20 -20 -20 -15 -20 -20 -20 -20 -16 -20 -20 -20 -20 -20 -20 -20 -20 -20 -20 -20 -20 -20 -20 -20 -20 -20 -20 -20 -20 -20 -20 -20 -20 -20 -15
16 12 8 10 1 -11 -20 -20 -6 -5 -3 -20 -20 -20 -20 -20 -20 -20 -20 -20 -20 -20 -20 -20 -20 -20 -20 -20 -20 -20 -20 -20 -14 -20 -20 -16 14 -4 -20 -20 -20 -20 -20 -20
16 11 1 11 -4 -10 -20 -18 5 -12 3 -20 -20 -20 -20 -20 -20 -20 -20 -20 -20 -20 -20 -20 -20 -20 -20 -20 -20 -20 -17 -20 -20 -20 -20 8 4 1 -20 -20 8 -20 -20 -20
17 13 12 2 5 -13 -20 -11 -20 -11 -20 -20 -20 -20 -12 -20 -20 -20 -20 -20 -20 -20 -20 -20 -20 -20 -20 -20 -20 -19 -20 -20 -20 0 -20 -19 7 13 -20 -20 5 -20 -20 -20
13 11 6 11 -7 -20 -20 -20 -20 -20 -20 -20 -20 -20 -20 -20 -20 -20 -20 -20 -20 -20 -20 -20 -20 -20 -20 -20 -20 -20 -20 -20 -20 -20 -20 -20 -12 9 -20 -16 6 -20 15 18
13 14 14 -20 -20 -20 -20 -20 -20 -20 -20 -20 -20 -20 -20 -20 -20 -20 -20 -20 -10 -19 -20 -20 -20 -20 -20 -20 -20 -20 -20 -1 -19 -20 -20 -19 -19 -2 6 -16 -18 -20 -20 -20
15 14 10 4 -20 -20 -20 -20 -20 -20 -20 -20 -20 -20 -20 -20 -20 -20 -20 -20 -20 -20 -19 -20 -20 -20 -20 -20 -20 -20 -20 -20 -20 -14 -20 -20 -20 -20 -20 -20 -20 -20 -20 -20
15 -4 8 9 -20 -20 -13 -20 -20 -20 -20 -20 -20 -20 -20 -20 -20 -20 -20 -20 -20 -20 -20 -20 -20 -20 -13 -20 -6 -20 -20 -20 -20 -20 -20 -20 -20 -20 -20 -20 -20 -20 -20 -20
13 1 -20 -5 7 -0 -3 -20 -20 -20 -20 -20 -20 -20 -20 -20 -20 -20 -20 -20 -20 -20 -20 -20 -20 -20 -20 -8 -20 -20 -20 -20 -20 -20 -20 -20 -20 -20 -20 -20 -20 -20 -20 -20
12 11 9 6 -18 -20 -20 -20 -20 -13 -20 -20 -20 -20 -20 -20 -20 -20 -20 -20 -20 -20 -20 -20 -20 -20 -20 -20 -20 -20 -20 -20 -20 -20 -20 -20 -20 -20 -20 -20 -20 -20 -20 -20
14 -4 2 11 7 -20 -20 -19 -10 4 -20 -20 -20 -20 -20 -20 -20 -20 -20 -20 -20 -20 -20 -20 -20 -20 -20 -20 -20 -20 -20 -20 -20 -20 -20 -20 -20 -20 -20 -20 -20 -20 -20 -20
-7 -20 -14 -8 1 -15 -20 -20 -3 -20 -20 -20 -20 -20 -20 -20 -20 -20 -20 -20 -20 -20 -20 -20 -20 -20 -20 -20 -20 -20 -20 -20 -20 -20 -20 -20 -20 -20 -20 -20 -20 -20 -20 -20
-20 -20 -20 -20 -20 -20 -20 7 2 -20 -20 -20 -20 -20 -20 -20 -20 -20 -20 -20 -20 -20 -20 -20 -20 -20 -20 -20 -20 -20 -20 -20 -20 -20 -20 -20 -20 -20 -20 -20 -20 -20 -20 -20
-20 -20 -20 -20 -20 -15 -20 -20 -20 -20 -20 -20 -20 -20 -20 -20 -20 -20 -20 -20 -20 -20 -20 -20 -20 -20 -20 -20 -20 -20 -20 -20 -20 -20 -20 -20 -20 -20 -20 -20 -20 -20 -20 -20
-20 -20 -20 -20 -20 -20 -20 -20 -20 -20 -20 -20 -20 -20 -20 -20 -20 -20 -20 -20 -20 -20 -20 -20 -20 -20 -20 -20 -20 -20 -20 -20 -20 -20 -20 -20 -20 -20 -20 -20 -20 -20 -20 -20
-20 -9 -20 -20 -20 -20 -20 -20 -20 -20 -20 -20 -20 -20 -20 -20 -20 -20 -20 -20 -20 -20 -20 -20 -20 -20 -20 -20 -20 -20 -20 -20 -20 -20 -20 -20 -20 -20 -20 -20 -20 -20 -20 -20
-20 -20 -20 -20 -20 -20 -20 -20 -20 -20 -20 -20 -20 -20 -20 -20 -20 -20 -20 -20 -20 -20 -20 -20 -20 -20 -20 -20 -20 -20 -20 -20 -20 -20 -20 -20 -20 -20 -20 -20 -20 -20 -20 -20
-20 -20 -20 -20 -20 -20 -20 -20 -20 -20 -20 -20 -20 -20 -20 -20 -20 -20 -20 -20 -20 -20 -20 -20 -20 -20 -20 -20 -20 -20 -20 -20 -20 -20 -20 -20 -20 -20 -20 -20 -20 -20 -20 -20
-20 -20 -20 -20 -20 -20 -20 -20 -20 -20 -20 -20 -20 -20 -20 -20 -20 -20 -20 -20 -20 -20 -20 -20 -20 -20 -20 -20 -20 -20 -20 -20 -20 -20 -20 -20 -20 -20 -20 -20 -20 -20 -20 -20
-20 -20 -20 -20 -20 -20 -20 -20 -20 -20 -20 -20 -20 -20 -20 -20 -20 -20 -20 -20 -20 -20 -20 -20 -20 -20 -20 -20 -20 -20 -20 -20 -20 -20 -20 -20 -20 -20 -20 -20 -20 -20 -20 -20
-20 -20 -20 -20 -20 -20 -20 -20 -20 -20 -20 -20 -20 -20 -20 -20 -20 -20 -20 -20 -20 -20 -20 -20 -20 -20 -20 -20 -20 -20 -20 -20 -20 -20 -20 -20 -20 -20 -20 -20 -20 -20 -20 -20